Wind_Speed
25 23 21 21 21 19 18 16 15 16 16 15 14 12 11 11 11 10 10 9 9 10 11 11 11 10 8 8 8 8 8 8 9 10 10 10 12 13 13 14 13 12 12 13 14 14 15 16 17 18 19 20 19 17 18 19 18 19 19 18 17 16 17 18 18 18 18 16 15 14 12 12 14 15 18 21 20 19 20 24 29 32 32 32 32
24 22 21 23 22 21 19 17 16 16 16 15 15 14 12 12 11 10 10 9 8 8 9 11 12 10 7 6 7 7 7 7 7 8 8 8 9 10 11 12 12 11 11 11 13 13 13 14 15 16 17 18 18 17 16 16 17 18 20 20 19 18 16 16 17 17 16 16 15 13 11 11 12 12 15 21 22 19 17 19 22 27 30 31 31
24 22 21 23 23 22 21 19 18 18 17 17 16 15 14 12 11 10 9 9 7 7 8 9 12 10 7 6 6 6 6 6 6 7 7 6 6 7 7 8 9 9 10 10 12 13 13 13 14 15 15 15 17 16 13 13 14 15 18 19 19 16 14 14 14 15 15 16 15 13 11 12 12 11 11 13 21 22 20 18 18 20 25 29 30
23 22 20 23 24 24 23 20 20 20 19 19 18 17 15 12 11 10 10 9 8 8 8 8 11 11 7 5 5 5 6 6 6 6 5 4 4 3 4 5 5 6 7 8 9 11 12 12 13 14 14 14 15 14 12 11 10 11 13 15 16 15 14 14 13 13 14 14 14 13 13 12 12 12 10 9 14 23 23 20 19 19 20 24 27
25 22 21 25 25 24 24 23 23 22 21 21 20 17 15 13 12 10 10 9 9 9 9 8 10 11 7 4 5 5 5 5 4 3 2 2 1 2 2 2 2 3 4 5 6 7 9 11 12 13 14 14 13 12 11 10 9 9 10 11 13 14 14 15 14 13 13 13 13 13 13 13 12 13 11 8 8 17 25 24 21 19 19 20 23
26 22 22 26 26 26 26 26 25 25 25 24 22 19 16 14 13 11 11 10 10 10 10 9 10 11 7 3 4 4 4 4 3 2 1 1 1 1 1 1 1 2 2 2 3 4 5 7 9 10 11 12 12 11 10 10 9 8 9 10 11 11 11 12 13 13 13 14 13 13 13 13 12 11 11 9 8 8 18 25 23 19 18 19 21
25 23 24 28 29 29 29 28 27 28 27 26 24 21 18 16 14 12 12 11 11 11 11 9 9 11 7 3 3 3 3 3 2 2 2 2 2 2 2 2 2 2 2 2 2 3 3 4 5 6 8 8 8 9 8 8 8 8 9 10 11 10 10 10 11 10 11 12 11 12 13 12 11 12 12 10 8 7 8 16 22 21 18 18 20
24 25 27 29 30 31 30 29 29 29 28 27 27 24 21 18 16 14 13 12 12 12 12 10 9 10 7 4 3 3 2 2 2 3 3 3 4 4 4 4 4 4 4 4 4 4 4 4 4 4 4 5 5 5 5 5 6 6 7 8 9 10 10 11 11 11 11 11 10 11 13 13 12 13 13 12 11 9 6 7 14 20 20 18 19
21 21 23 25 26 28 29 30 30 30 29 29 28 26 23 21 19 16 15 14 13 13 12 11 9 10 8 5 4 3 2 1 2 3 3 4 4 3 3 3 3 4 4 5 5 5 5 5 5 4 4 3 3 3 3 3 3 4 5 6 6 7 9 10 10 11 12 12 12 13 14 14 14 14 14 14 13 12 10 7 9 15 19 20 21
19 19 21 23 23 24 26 27 29 30 30 30 30 28 26 24 21 19 17 15 14 14 14 11 9 10 9 7 5 4 3 2 1 2 2 2 2 2 1 1 1 1 2 3 4 5 5 6 6 5 5 4 4 3 3 3 3 2 3 3 4 4 5 7 7 8 10 11 12 14 15 15 15 15 16 15 14 13 14 13 12 13 15 17 19
18 20 22 23 23 24 25 26 27 28 28 29 30 31 29 27 23 21 19 17 16 16 15 12 10 10 9 8 7 6 5 4 3 2 2 2 2 1 1 2 2 2 1 1 1 2 4 4 5 5 6 6 5 5 4 4 4 3 3 3 3 3 3 4 5 5 6 7 8 9 11 11 12 14 15 14 14 14 15 16 16 16 16 17 16
16 19 22 23 23 23 24 25 26 28 29 28 29 31 32 30 26 23 21 18 18 18 16 13 11 11 10 10 9 7 6 6 5 3 3 3 3 2 2 3 3 3 3 2 2 1 1 2 3 4 4 5 5 5 5 5 5 5 4 4 4 4 4 4 5 5 5 5 6 6 7 7 8 9 10 10 11 12 13 15 17 18 19 20 19
14 18 20 20 21 22 23 24 26 28 29 29 29 30 32 33 29 25 22 20 20 19 16 14 12 12 12 12 11 9 8 7 6 5 4 4 4 3 3 3 3 4 5 4 4 3 2 1 1 2 2 3 3 4 4 5 5 5 5 5 5 5 6 6 6 7 7 6 7 7 6 7 7 7 8 8 8 8 9 10 12 14 16 17 19
16 19 19 20 22 22 23 25 26 27 28 28 29 30 32 33 32 28 24 22 21 19 16 14 14 14 13 13 12 11 10 9 8 6 5 5 4 3 3 2 2 3 4 5 5 5 4 3 2 1 1 0 1 2 2 3 4 4 4 4 5 5 6 7 7 7 8 8 9 9 9 9 9 9 9 9 9 9 9 9 9 10 11 12 13
14 17 19 21 22 23 24 25 25 26 27 27 28 30 31 33 34 31 27 24 22 20 17 15 15 15 15 14 14 13 12 11 10 8 7 6 6 5 5 4 2 2 2 3 4 4 4 5 4 4 3 3 2 2 1 1 1 2 3 3 3 4 5 5 6 6 7 8 8 9 9 9 10 10 11 11 11 11 11 11 11 12 11 11 11
8 9 11 14 16 19 21 24 25 26 28 27 27 28 30 33 36 34 30 27 24 22 18 17 17 17 17 16 15 14 13 12 12 11 9 8 8 7 7 7 6 5 4 3 2 2 3 4 5 5 5 5 5 5 4 4 3 3 3 3 3 3 3 3 4 5 5 6 6 7 8 8 8 9 9 10 11 11 11 12 12 13 13 13 13
5 4 6 8 10 12 13 16 18 20 23 25 26 28 29 33 37 36 33 30 27 24 21 19 19 18 18 17 16 15 14 13 13 13 12 11 11 10 9 9 9 9 8 7 6 5 4 4 5 6 6 6 7 6 6 6 6 5 5 5 5 5 5 4 4 4 4 5 5 5 6 7 7 7 8 8 8 9 9 9 10 11 11 11 12
5 4 6 7 8 10 11 10 9 10 15 18 22 27 29 33 37 37 35 33 30 27 24 21 20 20 19 18 17 17 16 15 14 14 13 13 13 13 12 12 12 12 12 10 10 10 8 7 7 7 7 8 8 8 8 8 7 7 7 7 7 7 7 7 7 6 7 7 7 7 7 7 7 8 8 8 8 8 9 9 9 9 10 10 11
7 5 6 7 9 11 11 9 6 6 7 10 16 23 27 32 37 39 37 35 33 30 27 25 24 22 21 20 19 18 18 17 16 16 15 14 15 15 15 15 15 15 15 13 13 13 12 11 11 10 9 9 9 9 9 9 8 8 7 7 8 8 8 9 9 9 10 10 10 10 10 10 10 10 10 10 10 10 10 11 11 11 11 12 12
9 7 6 8 9 10 11 10 8 6 5 5 9 17 24 29 34 37 37 36 34 32 30 29 27 25 24 23 22 20 20 20 19 19 17 16 16 17 17 18 18 18 18 17 15 15 15 14 14 13 12 11 11 10 10 10 10 9 8 8 8 9 9 9 9 10 11 11 12 12 12 12 13 13 13 12 12 12 13 13 13 14 14 14 15
12 11 10 9 9 11 11 10 9 9 9 8 7 10 17 22 26 30 33 35 35 34 31 29 28 27 27 26 25 24 23 23 22 21 21 19 19 18 18 18 19 19 20 20 19 18 17 16 16 16 15 14 12 11 11 11 11 10 9 8 8 9 10 10 10 10 10 12 13 13 13 13 14 14 15 15 15 14 15 15 16 16 17 17 18
14 14 13 11 11 11 10 9 8 8 11 13 14 14 14 15 17 20 24 27 30 32 32 31 31 31 31 29 28 27 26 26 26 25 24 23 22 22 20 20 20 20 20 21 21 21 20 19 18 17 17 17 15 13 12 12 13 12 10 10 11 11 12 13 13 13 12 12 13 14 15 15 15 16 16 17 18 17 17 18 18 18 19 20 20
17 17 16 15 13 12 11 11 10 10 9 11 16 19 19 19 20 21 24 26 28 31 33 34 34 35 33 30 30 31 30 28 28 28 27 26 26 26 23 22 22 22 22 22 22 23 22 20 18 18 19 18 17 16 15 15 16 15 13 13 13 14 14 15 15 16 15 14 14 15 15 16 16 16 17 18 19 19 20 20 21 21 22 22 22
19 19 19 17 15 13 13 12 11 10 10 9 12 16 19 23 27 30 34 35 35 35 37 37 36 34 32 30 33 36 32 28 28 29 29 29 28 27 26 25 25 24 24 24 24 25 24 21 20 20 20 19 18 18 18 18 18 18 16 15 15 15 16 17 17 17 18 17 17 17 18 17 17 17 17 18 19 20 21 21 22 23 24 25 25
22 22 21 20 17 15 14 13 11 11 11 11 12 14 16 20 25 29 32 32 33 34 35 37 36 33 28 26 31 37 35 30 29 30 30 31 30 29 27 26 26 27 27 27 28 27 27 26 25 23 22 21 21 21 21 21 20 21 20 18 18 18 18 19 20 20 20 21 21 21 21 21 21 20 20 20 20 20 21 22 23 24 26 27 27
23 22 22 20 19 16 14 13 12 12 11 11 11 12 13 15 17 20 22 23 25 28 30 32 33 31 27 26 30 34 34 32 31 31 32 33 32 32 28 25 26 28 29 30 32 31 30 30 29 27 26 24 24 24 23 23 23 22 22 21 21 20 20 21 22 22 23 24 24 25 25 25 25 25 25 24 23 23 22 23 23 24 25 26 27
21 22 22 21 20 18 16 15 14 14 13 12 11 11 11 12 13 15 17 18 19 22 24 26 28 27 27 26 27 28 29 30 32 33 32 31 30 31 30 28 28 29 30 32 34 34 33 33 31 30 30 29 27 26 25 24 23 23 23 22 22 21 21 22 22 23 24 25 26 28 28 28 29 28 29 29 28 27 26 26 26 26 27 27 27
19 20 21 21 21 20 18 17 17 16 16 16 15 14 13 13 13 13 14 15 15 16 17 19 20 21 22 22 22 24 25 26 28 28 27 27 27 27 29 29 27 27 28 30 32 34 36 37 35 34 35 32 29 29 28 27 25 25 24 23 22 21 22 23 23 24 26 27 29 30 31 31 32 31 31 32 32 31 30 30 30 30 30 30 30
20 22 24 23 23 22 21 21 21 20 20 20 19 19 19 18 18 16 16 15 15 15 16 17 18 19 20 21 22 23 24 25 26 27 27 28 29 30 31 30 28 27 28 30 32 34 36 38 37 36 36 34 32 32 32 31 30 28 26 26 26 25 25 26 27 27 28 29 31 33 34 34 35 34 33 34 34 34 33 33 33 33 34 34 34
17 22 27 26 25 26 26 25 25 24 24 24 23 23 23 23 23 22 22 21 21 20 20 21 22 22 22 23 24 24 24 25 25 26 27 28 29 31 32 31 30 30 30 32 33 35 37 37 36 34 35 37 37 34 34 36 34 29 27 29 30 30 30 30 31 31 31 32 33 34 36 37 37 37 36 36 36 35 35 35 35 35 36 37 37
15 20 28 29 27 28 28 28 28 27 27 27 27 27 27 27 27 27 27 27 27 27 27 27 28 28 28 28 28 28 27 27 26 26 27 29 31 33 34 33 32 31 31 32 33 36 38 38 36 34 36 40 40 37 36 37 33 28 29 32 32 32 33 33 34 34 35 36 36 37 38 39 40 40 39 38 38 37 36 35 35 36 37 38 38
17 18 23 27 28 28 28 27 27 27 27 28 27 28 28 29 28 28 28 27 28 29 30 31 30 30 30 30 30 31 31 31 30 29 30 30 32 33 34 34 34 33 33 33 33 36 38 39 38 37 37 39 37 34 32 32 29 29 30 31 32 33 34 35 36 37 38 38 39 40 41 41 41 41 41 40 40 39 38 37 36 37 38 39 39
20 17 17 21 27 30 28 26 26 26 27 27 26 27 27 28 28 27 27 26 27 28 30 31 31 31 31 30 30 30 31 32 31 31 31 31 31 31 31 32 33 34 34 34 35 35 36 38 39 38 39 39 35 30 29 28 29 30 30 30 33 35 35 36 38 40 41 41 41 41 40 39 39 39 40 40 40 40 40 40 40 41 41 40 40
19 17 17 19 25 30 29 26 25 26 26 26 25 25 25 25 25 25 25 25 25 26 27 28 29 30 30 30 30 30 30 30 30 30 31 30 30 29 30 30 30 32 33 34 35 33 34 37 39 40 42 41 35 31 30 29 29 30 30 31 34 36 36 37 40 43 43 43 41 39 38 37 37 38 39 39 40 40 41 42 43 44 45 44 42
19 17 17 18 23 29 28 25 25 25 24 25 25 25 24 24 24 24 25 25 25 25 25 25 26 27 27 28 29 29 29 29 28 28 29 29 29 29 29 29 29 30 32 33 33 32 32 34 36 40 42 39 34 33 33 32 32 32 32 33 36 37 37 39 41 42 42 41 39 37 35 35 37 38 39 39 39 39 40 42 44 46 47 46 45
15 13 13 15 22 27 27 25 25 25 24 25 26 26 25 24 24 24 25 26 26 26 25 25 25 25 26 26 27 28 28 28 28 28 28 28 28 29 29 29 29 30 31 31 31 29 30 32 35 38 38 35 33 35 35 34 34 34 35 36 37 37 37 38 38 37 38 39 38 36 34 35 38 40 41 41 40 39 41 43 45 46 47 47 46
8 9 11 14 21 26 27 25 25 25 26 27 27 27 27 26 25 25 25 26 26 26 26 26 26 26 26 26 27 28 28 28 28 28 28 28 29 29 29 28 29 29 30 31 29 28 30 34 35 35 34 33 34 35 35 35 36 35 36 36 36 36 36 36 35 35 36 38 38 37 37 38 40 41 42 42 41 41 42 44 45 46 46 47 47
8 10 11 14 21 26 27 26 26 26 27 28 28 29 29 28 28 27 27 27 28 27 27 27 27 27 27 27 28 29 29 30 29 30 30 30 30 30 30 30 30 30 31 31 32 32 34 36 35 33 33 34 34 35 35 35 36 36 36 36 36 36 36 36 36 36 37 38 39 40 41 42 42 42 42 41 42 42 43 44 45 47 48 49 49
10 11 11 15 23 27 27 27 27 28 29 30 31 31 31 31 31 30 30 30 30 29 29 29 29 28 27 27 27 28 29 30 31 31 32 33 33 33 33 33 33 33 33 34 35 36 36 36 35 34 34 34 34 34 34 34 35 35 35 35 35 35 36 37 36 36 38 39 40 42 44 44 43 42 41 41 42 43 44 46 47 48 49 49 49
11 12 14 20 26 27 27 28 28 29 30 31 32 33 34 34 34 33 33 32 32 31 31 31 30 30 29 28 28 29 29 29 30 32 33 34 35 36 36 36 37 35 35 36 37 36 36 36 36 35 35 34 33 33 33 33 34 33 33 33 34 35 36 36 37 37 38 40 42 44 45 45 44 43 44 44 44 45 46 46 46 47 48 48 48
15 18 22 26 28 29 29 30 30 30 31 32 33 34 36 36 37 37 36 35 34 34 34 34 33 32 32 32 33 33 32 32 32 33 34 35 36 37 38 38 38 36 35 37 37 37 36 36 35 35 34 33 32 32 33 32 32 32 32 33 34 35 36 37 37 38 38 40 42 43 44 45 45 46 46 46 46 46 46 46 45 46 47 47 48
22 27 30 31 31 33 33 32 32 33 33 34 35 36 38 39 40 40 40 39 38 37 37 37 37 37 37 37 37 37 37 36 35 35 36 37 38 39 39 38 37 37 36 37 36 36 36 35 34 34 32 31 31 32 32 31 31 31 32 34 35 36 37 37 37 37 38 40 40 42 43 45 45 46 46 46 46 46 46 46 46 46 47 48 49
22 27 31 32 33 34 35 35 35 35 36 36 38 39 40 41 41 41 41 40 39 39 39 40 40 40 40 40 40 39 40 39 39 39 39 39 40 41 40 38 38 38 38 37 36 36 36 35 33 33 32 31 30 30 29 29 30 31 33 34 35 35 35 35 35 36 37 39 40 41 42 43 43 43 44 44 45 46 47 47 48 49 50 50 51
26 29 31 33 35 35 35 36 36 36 36 37 38 39 40 41 40 39 39 39 39 40 40 41 42 42 42 42 42 42 42 41 41 41 41 42 42 42 41 39 39 39 37 37 36 35 34 33 33 32 31 29 28 27 28 30 31 32 32 31 30 30 31 31 33 35 36 37 38 38 39 39 40 42 43 45 46 47 48 49 50 52 53 53 54
28 32 33 34 36 36 37 38 39 39 39 38 37 39 40 40 39 39 38 38 39 40 41 42 43 44 44 44 44 44 44 43 42 41 42 44 44 42 40 39 39 38 37 35 34 33 32 32 31 30 28 27 26 27 29 31 31 30 29 27 28 30 32 32 32 33 33 34 35 36 37 39 40 42 44 45 47 48 49 50 51 52 53 54 54
26 28 29 30 31 34 36 36 35 36 37 36 36 37 38 38 38 38 37 37 37 38 39 41 42 42 43 43 44 44 43 43 42 42 43 43 42 40 38 38 37 36 34 33 32 31 29 28 27 26 25 25 26 28 29 30 29 27 26 26 28 31 31 30 30 30 31 32 34 35 37 39 40 41 43 44 45 47 48 48 49 49 50 51 51
26 27 27 28 30 32 32 31 30 31 33 34 33 33 34 35 35 35 34 34 35 36 38 39 40 41 41 42 43 42 42 42 42 41 41 40 38 36 36 36 35 34 32 30 28 26 24 24 24 24 25 26 27 28 28 27 26 26 26 27 28 28 27 27 27 28 30 32 34 35 36 38 39 40 41 43 44 45 46 47 47 46 46 46 46
26 27 29 31 32 31 31 31 31 31 32 32 32 32 32 33 34 34 34 34 33 35 38 39 39 39 40 40 40 40 40 39 38 38 37 36 35 34 33 31 28 25 24 23 22 22 22 23 23 24 26 27 26 26 25 25 25 24 24 24 24 24 24 25 27 29 30 32 33 34 35 36 38 39 40 41 42 43 44 44 44 44 43 42 41
27 28 30 31 31 31 31 31 31 31 30 31 32 31 31 33 34 34 34 34 34 35 38 39 39 39 39 38 38 38 37 36 35 34 33 32 31 28 26 24 22 20 19 20 21 22 23 23 23 24 25 25 23 22 21 21 20 20 19 20 21 22 23 26 27 29 30 30 30 32 33 35 37 38 39 41 42 42 43 42 41 40 39 38 37
29 30 30 30 30 30 30 31 31 31 31 31 31 30 30 32 33 32 33 34 35 36 37 37 37 37 36 35 35 35 33 32 31 30 28 27 24 22 22 24 25 23 22 21 21 21 21 22 23 23 22 20 18 17 17 16 16 16 17 19 21 23 24 25 25 26 27 27 28 30 32 34 36 38 39 40 41 41 41 39 37 36 35 34 34
29 29 29 29 29 30 30 31 31 31 30 30 29 29 30 32 31 30 31 33 33 34 35 34 35 35 34 32 31 29 26 26 26 26 26 26 25 26 27 27 25 23 22 22 21 21 21 21 20 18 16 15 14 14 14 14 15 16 18 20 21 22 22 22 21 22 23 25 28 30 31 33 35 36 38 38 39 38 37 36 34 33 31 31 30
Wind_Direction
205 199 206 216 220 224 226 227 231 234 236 241 245 249 259 271 283 294 302 312 320 329 335 335 336 330 317 309 304 297 293 292 289 284 279 272 267 268 270 272 271 268 266 267 268 267 265 264 263 263 264 268 271 271 268 268 270 272 271 268 266 263 257 255 256 250 241 238 242 244 244 255 263 249 227 221 222 220 223 232 232 232 234 239 241
208 200 204 218 223 226 228 229 235 240 242 247 248 250 256 265 276 287 296 305 312 323 332 338 342 333 319 318 312 303 300 296 289 285 283 278 272 270 270 270 271 269 265 262 264 265 264 264 263 263 263 264 266 268 268 266 266 268 267 265 265 261 256 256 260 259 251 247 250 251 251 257 263 262 244 228 223 220 220 226 230 233 235 237 238
211 202 205 219 224 227 231 232 237 242 246 250 249 249 253 259 270 280 287 294 300 309 320 332 341 334 319 320 316 307 303 296 289 287 287 282 274 270 267 267 269 268 265 259 258 259 260 259 259 260 261 261 264 267 269 266 264 265 267 268 264 256 255 259 259 260 257 256 260 259 258 263 259 264 274 247 225 220 219 218 220 229 235 236 237
215 208 211 222 226 228 231 233 237 243 247 249 249 249 250 255 264 272 277 283 288 295 304 320 336 334 319 321 323 312 308 299 288 285 283 281 277 269 263 264 266 267 267 264 260 257 255 253 254 255 257 258 261 265 268 266 261 259 264 267 264 258 257 260 261 263 261 258 262 263 260 262 261 263 280 283 240 226 221 215 214 219 224 230 235
222 214 214 222 226 228 232 235 238 243 247 249 250 249 248 248 253 262 269 274 279 285 293 305 329 332 316 323 337 320 311 299 287 290 290 286 267 244 243 242 250 258 262 266 264 258 255 253 252 251 253 255 258 262 264 264 258 253 257 260 264 267 263 262 265 266 263 262 261 262 263 260 262 266 270 296 287 241 227 221 222 224 217 219 225
222 213 212 219 223 225 229 234 238 242 246 248 248 246 243 239 243 254 261 268 271 276 285 294 319 327 315 324 344 326 315 305 305 321 313 288 262 241 248 242 252 260 259 271 271 264 259 256 253 251 253 256 258 259 259 258 255 251 252 254 260 266 262 261 266 264 264 268 266 265 267 260 260 271 277 290 314 279 238 228 229 228 218 219 223
224 217 213 215 219 222 225 230 235 240 245 246 245 244 240 234 236 246 254 261 266 272 280 285 309 321 310 316 341 332 328 319 310 306 286 278 272 269 281 285 287 287 283 286 288 287 280 270 265 258 255 257 256 258 256 254 256 254 249 249 253 258 256 255 258 260 262 266 269 267 264 259 258 270 279 279 288 304 273 243 234 225 222 231 233
227 221 218 217 219 222 224 227 229 235 242 244 244 242 238 235 235 240 248 256 262 269 275 279 299 312 303 298 317 320 339 340 303 285 275 272 276 281 288 289 286 282 278 277 277 281 282 280 279 273 267 264 260 256 256 253 253 254 252 250 253 253 252 251 250 252 254 256 259 259 257 257 261 268 272 270 267 270 285 277 247 232 229 233 234
234 226 224 224 223 224 227 228 229 230 234 239 241 239 236 235 234 237 244 251 256 262 268 272 286 300 294 285 294 292 301 342 313 285 279 279 285 289 291 290 283 277 271 267 267 266 269 272 272 275 276 273 271 266 264 264 256 251 249 249 252 252 251 250 252 252 251 252 254 254 256 256 257 262 261 261 263 261 264 279 264 244 239 235 231
239 235 232 231 230 231 232 234 236 235 233 235 236 235 233 233 233 235 241 247 251 255 260 264 274 287 284 275 279 275 266 283 307 303 305 300 300 313 325 321 280 265 255 252 258 258 260 263 263 268 273 272 273 271 267 273 271 262 255 251 249 248 249 248 249 251 250 252 254 255 257 256 255 256 255 256 257 257 259 261 260 256 254 252 246
237 239 238 236 236 237 240 243 245 246 244 241 238 233 229 230 232 232 235 241 245 249 254 257 264 273 273 269 270 268 259 256 265 302 330 336 336 0 39 63 87 95 107 171 220 244 250 254 258 260 264 267 266 264 266 270 273 271 263 262 260 251 252 252 248 248 247 248 251 251 254 255 255 256 258 260 256 251 250 250 250 251 253 257 261
240 243 243 243 243 244 247 250 252 253 252 251 247 238 229 226 228 229 229 235 241 245 249 253 256 261 262 264 267 264 257 254 258 278 313 339 352 5 36 60 72 80 84 95 112 146 203 229 243 250 255 262 264 264 266 268 272 275 271 267 267 265 263 264 263 258 253 250 249 251 253 253 252 256 260 264 262 256 251 249 247 247 248 249 253
241 243 247 249 250 251 252 254 256 257 256 254 250 243 232 224 223 225 225 229 238 241 243 247 250 251 254 259 263 262 256 255 258 265 283 312 339 358 18 47 59 70 77 79 83 89 98 127 179 217 235 243 251 255 255 259 261 263 266 265 262 264 265 265 267 266 264 263 259 258 260 261 260 260 261 261 262 261 257 254 252 250 250 250 249
245 248 252 255 256 257 258 258 258 258 258 255 248 241 234 224 219 221 222 224 234 238 238 241 243 245 247 253 259 261 259 257 256 258 266 282 302 326 345 12 40 60 74 77 75 74 72 72 70 70 66 264 242 240 236 241 250 251 253 256 255 258 261 261 264 265 266 268 267 265 263 264 265 265 266 266 266 265 262 258 257 258 254 252 252
247 250 254 258 259 260 261 261 260 258 255 254 245 236 231 223 216 217 219 221 229 233 232 234 237 241 243 247 255 260 262 261 259 258 259 265 272 281 295 311 328 355 36 67 74 66 58 54 46 40 34 21 14 6 346 308 281 275 265 260 259 260 261 265 267 268 269 270 271 272 269 266 266 265 266 268 268 268 268 266 264 264 263 260 259
250 254 260 265 264 265 266 263 262 259 256 252 242 231 227 220 213 215 218 219 225 229 226 228 233 238 241 244 251 257 263 266 264 263 259 258 261 264 272 281 289 299 308 321 350 24 31 31 28 25 22 18 12 7 3 359 351 343 331 316 307 295 283 279 279 277 278 275 274 275 274 272 269 266 266 266 267 267 266 267 267 266 266 264 262
275 287 301 296 283 281 281 274 268 263 258 251 236 225 222 216 210 212 216 217 221 223 222 225 232 237 240 243 248 253 259 265 267 267 263 261 259 261 265 269 276 282 285 293 303 310 326 340 352 359 2 5 4 2 2 1 357 352 344 334 327 323 317 308 303 301 298 294 288 284 281 282 279 277 274 270 270 270 269 269 269 270 269 266 264
281 305 325 324 311 299 296 295 293 281 267 254 235 221 216 212 208 210 215 217 218 219 220 224 229 234 239 242 245 249 252 257 262 266 268 267 266 264 265 265 268 273 275 281 287 291 298 307 317 328 335 341 346 349 350 353 358 356 349 341 331 325 322 317 313 311 309 308 306 303 298 295 293 291 288 285 282 279 278 276 274 274 274 272 269
275 296 317 323 320 313 305 297 304 315 294 265 243 224 211 206 206 209 214 216 217 217 218 220 225 231 235 238 240 243 247 250 253 259 262 265 268 270 269 269 268 270 272 274 278 283 288 292 298 304 312 320 326 332 335 338 344 348 348 345 337 331 325 319 315 312 311 310 309 309 308 304 302 298 295 293 291 289 286 284 282 280 277 275 273
269 277 294 308 311 314 314 299 281 281 295 291 256 231 217 209 208 210 215 218 219 218 217 219 224 229 232 233 235 236 239 243 246 251 256 258 263 268 270 272 273 273 274 274 274 277 280 283 289 292 296 302 308 315 321 323 325 331 334 336 333 330 326 321 317 313 311 310 308 307 306 304 303 300 297 294 291 291 289 287 286 285 283 281 278
268 268 273 289 297 296 300 303 289 263 255 265 265 239 224 216 213 215 219 223 225 224 224 224 226 231 234 232 232 231 233 238 241 244 248 251 253 257 263 268 272 273 275 278 279 277 277 278 280 284 287 290 293 299 305 308 309 312 316 320 322 322 321 319 318 316 315 313 310 307 305 303 302 301 300 298 294 292 289 288 287 286 286 285 284
264 264 264 270 281 282 275 278 283 268 255 255 258 258 249 235 228 226 228 232 231 231 232 231 229 232 235 235 233 231 229 231 236 239 241 244 246 249 252 256 262 267 270 275 279 281 281 280 278 278 279 281 282 285 288 292 294 296 301 308 313 315 316 317 318 317 316 315 313 311 309 308 306 304 303 301 299 297 294 292 290 288 287 287 287
260 262 261 259 262 266 260 255 258 263 264 257 254 257 257 252 247 241 239 241 240 237 235 235 234 235 238 240 240 238 234 232 235 239 240 241 241 243 247 251 256 262 267 271 274 276 279 282 284 284 283 283 283 284 285 285 287 289 294 299 304 307 310 312 314 314 314 313 311 309 307 307 308 307 306 304 302 300 298 296 294 292 290 289 288
255 257 257 254 251 252 251 249 244 244 245 241 242 249 252 250 246 243 243 245 247 245 242 243 247 249 246 243 242 241 238 237 239 242 244 245 245 244 246 253 259 263 268 272 273 274 277 282 285 285 287 287 287 286 287 286 287 289 291 293 295 298 301 304 305 307 308 309 310 308 306 305 306 306 306 306 304 303 301 299 298 295 293 290 289
251 251 251 249 248 247 246 245 244 240 235 232 234 237 242 245 244 244 245 247 248 248 246 248 256 262 260 253 250 247 241 240 246 247 247 249 253 252 247 248 258 265 269 272 275 276 279 281 282 283 284 285 284 283 282 282 282 283 285 287 289 290 292 295 298 300 301 303 305 306 305 305 305 305 304 303 301 301 300 300 299 298 296 294 292
247 246 246 246 247 248 247 248 249 250 247 242 239 235 236 240 242 244 246 245 245 244 244 247 253 260 262 260 257 250 240 239 248 253 251 252 257 262 260 255 258 264 267 270 273 276 278 278 280 281 280 279 278 278 278 279 276 275 276 279 282 284 285 287 291 294 295 297 298 300 301 301 300 301 301 299 297 295 294 294 294 293 292 291 291
245 245 244 245 248 250 254 257 258 258 258 256 254 250 244 240 241 243 245 247 248 246 245 247 250 255 259 260 257 250 243 243 249 254 254 255 259 266 270 268 264 266 269 271 272 274 274 272 272 274 274 273 273 273 275 276 275 274 274 276 278 280 280 282 287 292 293 294 295 295 296 296 295 296 297 297 295 293 291 290 290 288 287 285 285
251 250 248 248 250 253 257 262 266 266 266 265 263 262 260 255 249 247 247 249 252 253 251 251 252 254 256 257 255 253 251 251 253 254 254 256 260 266 272 272 268 268 271 272 271 270 268 266 265 267 268 267 267 268 271 273 272 274 277 279 280 280 278 279 284 288 290 292 294 294 294 294 294 293 294 294 294 294 292 291 291 290 287 285 284
264 262 260 258 258 261 263 266 270 271 271 271 270 268 268 267 263 258 256 256 255 258 260 259 259 258 257 257 256 256 256 256 257 258 257 259 262 266 271 272 269 268 270 271 268 267 265 264 263 265 268 268 266 265 268 269 268 270 276 280 282 281 279 280 284 285 286 288 291 292 293 293 292 292 290 289 291 293 292 292 292 292 291 290 288
260 263 266 266 267 269 269 270 272 273 274 274 273 273 272 272 272 270 269 269 268 267 270 272 272 271 269 268 267 267 266 264 262 262 263 264 265 266 269 271 270 270 271 270 268 268 267 265 264 265 268 269 266 263 264 267 267 270 277 281 282 281 278 280 284 285 286 287 287 288 289 290 290 289 286 284 285 288 290 290 291 292 293 292 291
240 255 268 272 273 272 271 272 273 273 273 272 272 273 273 273 274 275 275 277 276 275 276 279 281 280 278 276 276 275 274 272 269 268 267 267 268 269 270 272 272 271 270 268 267 268 269 269 269 269 268 268 268 267 269 271 271 273 278 280 280 278 276 279 283 285 285 286 286 286 287 288 288 287 284 282 279 280 283 285 286 289 291 292 292
240 250 265 271 273 273 272 272 271 269 269 269 269 269 270 272 274 275 276 277 276 276 277 279 280 280 278 277 276 277 276 275 273 271 270 269 269 270 271 272 273 272 270 268 267 267 269 270 272 273 272 272 274 274 275 274 273 273 275 276 275 275 276 280 283 284 284 285 286 287 289 289 289 287 284 282 278 276 277 280 282 286 288 289 289
236 237 252 265 269 271 271 269 266 264 264 264 265 266 267 269 271 273 275 276 275 274 274 276 276 277 277 276 275 275 275 276 275 274 274 273 271 272 272 272 273 272 270 268 266 266 268 270 272 274 274 274 277 278 276 273 272 272 273 272 272 274 277 281 282 284 285 286 287 289 290 290 290 289 286 283 279 276 275 276 279 282 284 285 284
228 233 247 261 266 267 268 264 259 258 259 259 261 262 264 266 269 272 274 275 275 273 272 272 272 272 273 274 275 275 274 274 275 275 275 276 275 274 273 272 272 271 271 270 269 268 267 268 270 271 271 272 276 277 275 273 271 270 270 269 271 274 277 279 280 282 284 286 287 288 289 289 290 290 288 286 283 280 278 278 280 282 284 285 284
234 243 250 257 262 264 262 258 253 252 253 254 256 258 260 265 268 272 275 276 276 275 272 271 269 267 267 267 268 270 271 272 273 274 276 277 277 276 275 274 273 272 271 272 273 271 269 268 268 268 270 273 275 274 272 272 271 270 269 269 271 274 276 276 278 279 281 283 285 287 288 290 290 290 289 287 286 284 283 282 282 283 285 285 285
238 245 249 255 259 258 257 255 252 251 251 253 256 260 263 268 271 274 277 277 277 276 274 273 272 271 269 269 269 269 270 271 272 273 274 275 275 275 275 275 274 273 273 273 272 270 268 268 267 270 275 277 275 273 272 272 271 271 271 271 273 275 276 276 277 278 280 282 284 286 288 290 291 290 288 286 286 286 285 283 282 282 283 284 285
239 244 252 257 256 254 255 256 253 254 256 258 261 264 267 271 274 275 276 275 273 273 273 273 274 275 276 276 276 275 275 275 274 274 274 274 273 273 274 273 273 273 273 272 270 268 269 271 273 275 277 275 272 271 272 271 271 272 272 273 274 275 276 276 277 278 280 282 284 284 286 289 291 289 286 286 287 288 287 285 284 284 285 285 285
244 252 259 257 253 252 255 256 256 258 260 261 263 266 269 271 272 273 273 271 269 268 268 268 270 273 276 279 279 279 278 277 277 277 276 275 274 273 273 273 273 272 271 270 270 271 273 276 277 276 274 272 271 271 270 270 270 271 272 273 274 274 274 275 277 279 280 282 283 283 285 289 291 289 287 287 289 289 288 287 287 287 287 287 288
253 261 262 254 252 253 254 257 259 261 262 263 265 267 268 270 271 272 272 271 269 266 265 266 267 268 272 275 278 279 279 278 277 276 275 275 275 274 273 273 272 272 272 273 274 274 274 275 274 272 271 270 270 271 271 271 270 270 270 271 272 272 273 274 277 280 281 282 284 285 288 290 290 289 290 291 291 289 289 289 289 289 288 288 288
256 259 261 257 255 256 257 258 260 262 263 265 267 268 269 270 272 274 274 274 271 267 264 263 264 266 268 272 276 279 281 281 280 277 276 275 274 273 273 272 271 273 275 275 274 274 273 272 271 269 269 269 269 270 271 272 271 269 268 269 270 271 272 275 277 279 281 284 287 288 289 291 291 292 293 293 292 291 290 290 290 289 289 289 288
255 255 260 262 261 260 261 261 263 264 265 266 268 269 270 271 272 274 275 274 273 269 266 263 263 265 267 271 275 280 283 284 283 281 278 276 274 273 271 271 272 274 274 273 273 272 271 269 268 268 267 267 267 267 268 269 268 266 266 268 270 272 273 274 275 278 282 286 288 289 289 290 292 293 294 293 293 292 292 291 290 290 290 289 289
266 262 263 266 266 266 266 267 268 269 269 270 271 271 272 272 273 273 274 273 273 271 268 266 266 267 269 272 276 279 281 283 284 282 278 276 275 273 271 272 274 274 272 270 269 269 268 267 266 265 263 262 261 261 263 265 266 267 267 269 271 272 272 272 274 280 285 287 288 289 289 290 292 292 292 292 292 292 291 291 292 292 292 291 291
273 269 268 269 271 271 272 273 273 272 272 272 272 273 273 273 273 273 272 272 271 271 271 270 270 270 271 273 276 278 280 282 282 280 277 275 273 272 272 273 273 272 270 269 267 266 266 265 262 260 259 258 258 258 260 262 265 265 266 267 269 270 270 272 278 284 287 288 289 288 288 289 289 290 291 291 292 293 294 294 295 294 293 292 291
272 270 269 270 271 273 275 275 275 275 274 273 272 273 273 273 273 273 271 271 272 272 272 271 272 273 274 276 277 279 281 281 280 277 276 274 272 271 272 272 271 270 269 268 267 266 265 261 257 256 255 254 254 256 257 259 260 261 263 266 269 273 277 281 285 287 288 288 288 287 288 290 291 293 294 295 295 296 296 296 295 294 293 292 290
275 273 273 273 273 273 273 274 275 275 275 274 273 272 272 272 272 272 271 271 271 271 271 272 273 274 276 277 278 279 279 278 276 274 273 273 271 270 270 268 268 268 268 268 268 265 260 256 253 253 253 252 252 253 254 254 256 258 261 266 273 280 286 288 288 287 288 288 289 291 292 293 294 294 294 294 294 294 293 292 292 291 290 290 289
278 278 277 276 275 274 274 274 274 274 274 274 273 272 272 273 274 273 272 272 271 271 271 271 272 272 274 275 275 275 274 272 270 270 270 269 268 267 266 266 266 266 266 266 264 259 254 251 249 249 250 250 251 252 252 252 255 260 265 272 279 284 286 286 286 287 289 290 292 292 292 291 291 291 291 292 292 292 291 290 290 289 288 288 287
276 275 274 273 273 273 274 274 274 274 275 276 276 276 277 278 277 276 275 274 273 272 271 271 272 272 273 273 272 271 269 268 267 267 267 267 266 265 264 263 263 263 262 260 256 249 243 241 242 243 245 247 249 250 251 254 259 265 272 278 281 281 281 284 287 289 291 291 291 291 290 291 292 293 294 294 294 293 293 292 292 291 290 289 287
273 273 272 271 271 271 271 271 273 275 276 276 277 277 278 277 275 274 275 275 274 273 273 274 274 274 273 273 272 271 270 269 267 266 265 264 263 261 260 259 257 256 254 249 239 232 229 230 234 240 243 245 247 249 253 258 263 268 272 276 278 281 285 288 290 290 290 290 290 291 293 295 296 297 297 297 297 297 297 297 296 295 293 290 289
270 271 271 270 271 271 271 272 273 274 275 276 276 276 276 275 274 273 275 274 273 272 273 274 275 275 275 274 273 271 270 268 266 263 260 258 256 254 250 242 231 224 226 227 224 224 226 228 232 238 241 243 246 250 255 259 263 267 272 275 280 285 287 287 287 287 287 289 292 296 299 300 301 302 303 303 304 303 303 301 299 297 294 292 290
268 268 269 270 271 272 272 273 274 275 275 275 275 274 274 274 274 274 273 272 271 272 274 275 276 276 276 274 273 270 266 262 258 255 250 245 241 232 221 213 207 206 211 216 217 220 225 227 230 234 237 240 244 250 254 259 264 270 275 280 283 284 283 283 285 287 291 296 301 304 306 307 308 309 309 309 308 307 305 303 300 298 295 293 291
268 269 269 270 271 272 273 273 274 274 274 273 272 271 270 271 272 273 271 272 274 276 277 277 277 276 275 273 268 262 253 247 242 235 226 219 214 205 197 193 192 195 203 207 209 213 217 221 223 226 229 235 241 248 255 262 269 275 278 280 281 281 282 284 288 294 301 306 309 310 312 314 314 314 313 313 312 310 309 306 303 300 298 296 294
Height
3113 3114 3116 3117 3117 3119 3120 3122 3123 3124 3125 3125 3126 3127 3127 3127 3127 3127 3126 3126 3126 3125 3125 3124 3124 3123 3122 3122 3121 3121 3121 3121 3121 3121 3121 3121 3122 3122 3122 3122 3123 3123 3123 3123 3123 3123 3123 3123 3123 3124 3124 3124 3125 3127 3129 3129 3130 3131 3131 3132 3132 3133 3133 3133 3133 3133 3132 3132 3132 3133 3134 3135 3135 3135 3136 3138 3137 3138 3140 3143 3145 3147 3149 3150 3151
3111 3112 3114 3115 3116 3118 3119 3120 3122 3123 3124 3124 3125 3126 3126 3126 3126 3126 3125 3125 3125 3125 3124 3124 3123 3123 3122 3122 3121 3121 3120 3120 3120 3120 3120 3121 3121 3121 3121 3121 3121 3122 3122 3122 3122 3121 3122 3122 3122 3122 3123 3123 3123 3124 3125 3126 3128 3129 3129 3129 3130 3131 3132 3132 3133 3133 3132 3132 3132 3132 3133 3134 3135 3135 3136 3137 3137 3137 3139 3141 3143 3145 3146 3147 3148
3111 3110 3112 3114 3115 3116 3118 3119 3121 3121 3122 3123 3124 3124 3125 3125 3125 3125 3125 3124 3124 3124 3124 3124 3123 3123 3122 3122 3121 3121 3120 3120 3120 3120 3120 3120 3120 3121 3121 3120 3120 3120 3120 3120 3120 3121 3121 3121 3121 3121 3121 3122 3122 3122 3123 3124 3125 3127 3127 3127 3128 3129 3130 3131 3131 3131 3131 3131 3132 3132 3133 3133 3134 3135 3135 3136 3136 3136 3137 3138 3140 3142 3144 3145 3146
3108 3109 3110 3112 3113 3115 3116 3118 3119 3120 3121 3121 3122 3123 3124 3124 3125 3124 3124 3124 3124 3124 3124 3123 3123 3123 3122 3122 3121 3121 3121 3120 3120 3120 3120 3120 3120 3120 3120 3120 3120 3120 3119 3119 3120 3120 3120 3120 3120 3120 3120 3120 3121 3121 3122 3122 3123 3124 3125 3125 3125 3126 3128 3128 3129 3129 3129 3130 3131 3132 3132 3132 3133 3134 3134 3135 3135 3135 3136 3136 3137 3138 3139 3141 3143
3105 3106 3108 3110 3112 3113 3115 3116 3117 3118 3119 3120 3121 3122 3123 3123 3123 3123 3123 3123 3123 3123 3123 3123 3122 3122 3122 3122 3121 3121 3121 3120 3120 3120 3120 3120 3120 3120 3120 3120 3120 3119 3119 3119 3119 3119 3119 3119 3119 3119 3119 3119 3119 3120 3120 3121 3122 3123 3123 3123 3123 3124 3126 3126 3127 3127 3128 3128 3129 3130 3131 3131 3132 3133 3133 3133 3134 3134 3134 3135 3136 3136 3136 3138 3140
3103 3104 3106 3108 3110 3112 3113 3114 3115 3116 3117 3118 3119 3121 3122 3122 3122 3122 3122 3123 3123 3123 3123 3122 3122 3122 3122 3122 3121 3121 3121 3120 3120 3120 3120 3120 3120 3120 3120 3120 3119 3119 3119 3119 3119 3119 3118 3118 3118 3118 3118 3118 3118 3119 3119 3119 3120 3121 3121 3122 3122 3123 3124 3124 3125 3125 3126 3126 3128 3129 3129 3129 3130 3131 3131 3132 3132 3131 3132 3133 3134 3135 3136 3137 3138
3103 3102 3104 3107 3108 3110 3111 3112 3113 3114 3115 3117 3118 3119 3120 3120 3121 3121 3121 3122 3122 3122 3122 3122 3121 3121 3121 3122 3121 3121 3121 3120 3120 3120 3120 3120 3120 3120 3120 3119 3119 3119 3119 3119 3118 3118 3118 3118 3118 3118 3117 3117 3118 3118 3118 3118 3119 3119 3120 3120 3121 3121 3122 3123 3123 3124 3124 3125 3126 3127 3127 3127 3128 3129 3129 3130 3130 3130 3130 3132 3133 3133 3134 3136 3137
3102 3102 3103 3105 3106 3108 3109 3111 3112 3112 3113 3115 3116 3117 3118 3119 3120 3120 3120 3121 3121 3121 3121 3121 3121 3121 3121 3121 3121 3121 3121 3120 3120 3120 3120 3120 3120 3120 3119 3119 3119 3119 3118 3118 3118 3118 3118 3118 3118 3117 3117 3117 3117 3117 3117 3118 3118 3118 3119 3119 3120 3120 3121 3122 3122 3122 3123 3123 3124 3125 3125 3126 3126 3127 3128 3128 3129 3129 3129 3130 3131 3131 3133 3135 3136
3101 3102 3104 3105 3105 3107 3108 3109 3110 3110 3111 3112 3114 3116 3117 3118 3118 3118 3119 3120 3120 3120 3120 3120 3120 3120 3120 3121 3121 3121 3121 3121 3120 3120 3120 3120 3120 3119 3119 3119 3118 3118 3118 3118 3118 3117 3117 3117 3117 3117 3117 3117 3117 3117 3117 3117 3118 3118 3118 3119 3119 3119 3120 3120 3121 3121 3121 3122 3123 3123 3123 3124 3124 3125 3126 3126 3127 3128 3129 3130 3130 3131 3132 3133 3134
3102 3102 3103 3104 3105 3106 3107 3107 3108 3109 3109 3110 3111 3114 3115 3116 3117 3117 3117 3118 3119 3119 3119 3120 3120 3120 3120 3120 3120 3120 3120 3120 3120 3120 3120 3120 3120 3119 3119 3119 3118 3118 3117 3117 3117 3117 3117 3117 3117 3117 3117 3117 3117 3117 3117 3117 3117 3118 3118 3118 3119 3119 3119 3119 3120 3120 3120 3121 3121 3121 3122 3122 3123 3123 3123 3124 3126 3126 3127 3128 3129 3130 3131 3132 3132
3101 3101 3101 3102 3103 3104 3105 3105 3106 3107 3108 3108 3109 3111 3113 3114 3115 3116 3116 3117 3118 3118 3118 3119 3119 3119 3119 3119 3120 3120 3120 3120 3120 3120 3120 3120 3120 3119 3119 3119 3118 3118 3117 3117 3117 3117 3117 3117 3117 3117 3117 3117 3117 3117 3117 3117 3118 3118 3118 3118 3118 3118 3119 3119 3119 3120 3120 3120 3121 3121 3121 3121 3121 3121 3121 3122 3123 3124 3125 3125 3126 3127 3128 3129 3130
3099 3099 3099 3100 3101 3102 3103 3103 3104 3104 3105 3106 3107 3108 3110 3111 3113 3114 3115 3115 3116 3117 3117 3118 3118 3119 3119 3119 3119 3119 3119 3119 3119 3120 3120 3120 3120 3119 3119 3119 3119 3118 3118 3118 3117 3117 3117 3117 3117 3117 3117 3117 3117 3117 3117 3117 3117 3118 3118 3118 3118 3118 3118 3118 3119 3119 3119 3120 3120 3120 3120 3120 3120 3120 3121 3121 3122 3122 3123 3123 3124 3124 3125 3126 3127
3097 3096 3097 3098 3099 3100 3100 3101 3101 3101 3102 3103 3104 3105 3106 3108 3111 3112 3113 3114 3115 3115 3116 3116 3117 3118 3118 3118 3118 3118 3119 3119 3119 3119 3119 3119 3120 3119 3119 3119 3119 3119 3118 3118 3118 3117 3117 3117 3117 3117 3117 3117 3117 3117 3117 3117 3117 3117 3117 3117 3118 3118 3118 3118 3118 3118 3118 3118 3119 3119 3119 3119 3120 3120 3120 3120 3121 3121 3122 3122 3122 3123 3123 3124 3124
3094 3095 3096 3096 3097 3097 3098 3098 3098 3098 3098 3099 3100 3101 3103 3106 3108 3110 3111 3112 3113 3114 3114 3115 3115 3116 3117 3117 3118 3118 3118 3118 3118 3119 3119 3119 3119 3119 3119 3119 3119 3119 3118 3118 3118 3118 3117 3117 3117 3117 3117 3117 3117 3117 3117 3117 3117 3117 3117 3117 3117 3117 3117 3117 3117 3117 3117 3117 3118 3118 3118 3119 3119 3119 3119 3120 3120 3120 3121 3121 3121 3122 3122 3123 3123
3093 3094 3094 3094 3094 3094 3095 3095 3095 3095 3095 3095 3096 3097 3100 3103 3105 3107 3109 3110 3111 3112 3113 3113 3114 3115 3115 3116 3117 3117 3117 3117 3117 3118 3118 3118 3118 3118 3118 3118 3119 3119 3118 3118 3118 3118 3117 3117 3117 3117 3117 3117 3117 3117 3117 3117 3117 3116 3116 3116 3117 3117 3117 3116 3116 3116 3116 3117 3117 3117 3117 3117 3118 3118 3118 3119 3119 3119 3120 3120 3120 3121 3121 3121 3122
3092 3092 3093 3092 3092 3092 3091 3091 3091 3091 3091 3091 3092 3094 3096 3099 3102 3105 3106 3108 3109 3110 3111 3111 3112 3113 3114 3115 3115 3116 3116 3116 3116 3117 3117 3117 3117 3117 3117 3117 3118 3118 3118 3118 3118 3118 3118 3117 3117 3117 3117 3117 3116 3116 3116 3116 3116 3116 3116 3116 3116 3116 3116 3116 3116 3116 3116 3116 3116 3116 3116 3116 3117 3117 3117 3117 3118 3118 3119 3119 3119 3119 3120 3120 3120
3091 3091 3091 3091 3090 3090 3089 3088 3087 3087 3087 3088 3089 3090 3093 3096 3099 3102 3103 3105 3107 3108 3109 3110 3110 3111 3112 3113 3114 3114 3115 3115 3115 3115 3115 3116 3116 3116 3116 3116 3116 3117 3117 3117 3118 3118 3118 3117 3117 3117 3117 3116 3116 3116 3116 3116 3115 3115 3115 3115 3115 3116 3116 3116 3116 3116 3116 3116 3116 3116 3116 3116 3116 3116 3116 3116 3117 3117 3117 3117 3118 3118 3118 3118 3119
3090 3090 3090 3089 3089 3088 3087 3086 3085 3085 3085 3085 3086 3088 3090 3093 3096 3099 3101 3102 3104 3105 3106 3107 3108 3109 3110 3111 3112 3112 3113 3113 3113 3113 3113 3114 3114 3114 3115 3115 3115 3115 3115 3116 3116 3117 3117 3117 3117 3117 3117 3116 3116 3116 3116 3116 3115 3115 3115 3115 3115 3115 3115 3115 3115 3115 3115 3115 3115 3115 3116 3116 3116 3116 3116 3116 3116 3116 3116 3116 3116 3116 3117 3117 3117
3089 3089 3089 3089 3088 3087 3087 3086 3085 3085 3084 3085 3086 3087 3088 3090 3093 3095 3097 3099 3101 3102 3104 3105 3106 3107 3108 3109 3109 3110 3111 3111 3111 3112 3112 3112 3112 3112 3112 3113 3113 3113 3114 3114 3115 3115 3115 3116 3116 3116 3116 3116 3116 3116 3115 3115 3115 3115 3115 3114 3114 3114 3114 3114 3114 3114 3114 3114 3114 3114 3115 3115 3115 3115 3115 3115 3115 3115 3115 3115 3115 3115 3115 3115 3115
3088 3088 3088 3088 3088 3087 3086 3086 3085 3085 3085 3085 3086 3087 3088 3089 3091 3093 3095 3096 3098 3100 3101 3102 3103 3105 3106 3106 3107 3107 3108 3109 3109 3109 3110 3110 3110 3110 3110 3110 3111 3111 3112 3112 3113 3114 3114 3114 3114 3114 3115 3115 3115 3115 3115 3115 3114 3114 3114 3114 3113 3113 3113 3113 3113 3113 3113 3113 3113 3113 3113 3113 3113 3113 3114 3114 3114 3114 3114 3114 3114 3114 3114 3113 3113
3087 3087 3087 3087 3087 3087 3086 3085 3085 3085 3085 3086 3087 3088 3089 3089 3090 3093 3094 3094 3095 3097 3098 3099 3101 3103 3103 3104 3104 3104 3105 3106 3107 3107 3107 3108 3108 3108 3108 3109 3109 3109 3109 3110 3111 3112 3112 3112 3113 3113 3113 3113 3113 3113 3113 3113 3113 3113 3113 3113 3113 3112 3112 3112 3112 3112 3112 3111 3111 3111 3111 3112 3112 3112 3112 3112 3112 3112 3112 3112 3112 3112 3112 3111 3111
3085 3085 3085 3085 3086 3086 3086 3085 3085 3085 3085 3085 3086 3087 3088 3089 3090 3091 3091 3092 3093 3095 3096 3098 3099 3100 3100 3101 3102 3102 3103 3103 3104 3104 3104 3105 3106 3106 3106 3106 3107 3107 3107 3108 3108 3109 3109 3110 3111 3111 3111 3111 3112 3112 3112 3112 3111 3111 3112 3112 3111 3111 3111 3111 3111 3111 3111 3111 3110 3110 3109 3110 3110 3110 3110 3109 3109 3110 3110 3110 3110 3110 3109 3109 3108
3083 3084 3084 3084 3084 3084 3084 3084 3084 3084 3084 3084 3085 3086 3087 3088 3088 3089 3090 3091 3092 3094 3095 3096 3097 3098 3098 3099 3100 3101 3101 3101 3101 3102 3102 3102 3103 3103 3104 3104 3104 3105 3105 3106 3106 3106 3107 3108 3109 3109 3109 3110 3110 3110 3110 3110 3110 3110 3110 3110 3110 3110 3110 3110 3109 3109 3109 3109 3109 3109 3108 3108 3108 3108 3108 3107 3107 3107 3107 3107 3107 3107 3107 3107 3106
3081 3082 3082 3082 3083 3083 3083 3083 3083 3083 3083 3083 3083 3084 3085 3086 3087 3089 3089 3090 3092 3092 3093 3093 3095 3096 3096 3096 3098 3099 3100 3099 3098 3099 3100 3101 3101 3100 3101 3102 3103 3103 3103 3103 3104 3104 3105 3106 3107 3107 3108 3108 3109 3109 3108 3109 3109 3109 3109 3109 3109 3109 3108 3108 3108 3107 3107 3107 3107 3107 3106 3106 3106 3106 3106 3105 3105 3104 3104 3104 3104 3103 3103 3103 3103
3080 3080 3080 3080 3081 3081 3081 3081 3082 3082 3082 3082 3083 3083 3084 3084 3085 3086 3087 3087 3089 3090 3090 3091 3092 3093 3093 3093 3094 3095 3097 3096 3095 3096 3098 3100 3100 3098 3097 3098 3100 3101 3102 3102 3102 3102 3103 3103 3104 3105 3106 3106 3107 3106 3106 3106 3106 3106 3107 3107 3107 3107 3106 3106 3106 3105 3105 3105 3104 3104 3104 3104 3104 3103 3103 3103 3103 3102 3102 3101 3101 3100 3100 3099 3099
3077 3078 3078 3078 3079 3079 3079 3080 3080 3081 3081 3081 3081 3082 3082 3083 3083 3084 3085 3085 3086 3087 3087 3088 3089 3089 3089 3089 3089 3089 3092 3094 3093 3094 3096 3096 3097 3096 3095 3095 3096 3098 3100 3100 3099 3100 3100 3100 3101 3102 3103 3104 3104 3104 3104 3103 3103 3103 3104 3104 3104 3104 3104 3104 3103 3103 3103 3102 3102 3102 3101 3101 3101 3101 3101 3100 3100 3100 3099 3099 3098 3098 3097 3096 3096
3075 3075 3076 3076 3076 3077 3077 3078 3078 3079 3079 3080 3080 3080 3081 3081 3082 3082 3083 3084 3084 3084 3085 3085 3086 3086 3086 3086 3087 3086 3087 3090 3091 3092 3093 3093 3094 3094 3094 3094 3094 3096 3097 3097 3097 3097 3097 3096 3096 3097 3099 3100 3100 3100 3100 3100 3100 3100 3100 3101 3101 3101 3101 3101 3100 3100 3100 3100 3100 3099 3099 3098 3098 3098 3097 3097 3097 3096 3096 3096 3095 3094 3094 3094 3093
3073 3073 3073 3074 3074 3075 3075 3076 3076 3076 3077 3077 3078 3079 3079 3080 3080 3081 3081 3082 3082 3082 3083 3083 3084 3084 3084 3084 3085 3085 3086 3087 3088 3089 3090 3091 3091 3091 3092 3092 3093 3094 3094 3094 3094 3094 3092 3091 3092 3093 3094 3095 3095 3096 3096 3097 3097 3097 3097 3098 3098 3098 3098 3098 3097 3097 3096 3096 3096 3096 3096 3095 3095 3095 3094 3093 3093 3092 3092 3092 3091 3090 3090 3089 3089
3071 3071 3071 3071 3072 3073 3073 3074 3074 3074 3075 3075 3075 3076 3077 3077 3078 3078 3079 3080 3080 3081 3081 3081 3082 3082 3083 3083 3083 3083 3084 3084 3085 3086 3086 3087 3088 3088 3088 3089 3090 3090 3091 3091 3090 3089 3087 3087 3089 3090 3090 3091 3090 3090 3092 3093 3093 3094 3094 3095 3095 3095 3095 3094 3094 3094 3093 3093 3093 3092 3092 3092 3091 3091 3091 3090 3089 3089 3088 3087 3087 3086 3085 3085 3084
3069 3068 3067 3069 3070 3070 3071 3071 3072 3072 3072 3073 3073 3073 3074 3074 3075 3075 3076 3077 3077 3078 3079 3079 3079 3080 3080 3081 3081 3081 3081 3081 3082 3082 3083 3083 3084 3085 3085 3085 3086 3086 3087 3087 3086 3085 3084 3084 3086 3088 3088 3087 3085 3086 3088 3089 3090 3092 3092 3091 3091 3091 3091 3090 3090 3090 3089 3089 3089 3088 3088 3087 3087 3087 3087 3086 3086 3085 3084 3083 3083 3082 3081 3080 3079
3067 3065 3064 3066 3066 3067 3067 3068 3069 3069 3069 3070 3070 3071 3071 3071 3072 3072 3073 3073 3074 3075 3075 3076 3076 3076 3076 3077 3077 3077 3078 3078 3078 3079 3079 3080 3080 3081 3081 3082 3082 3082 3082 3083 3082 3081 3081 3081 3081 3084 3084 3083 3083 3085 3085 3085 3088 3089 3088 3087 3087 3087 3087 3087 3086 3086 3085 3084 3084 3083 3083 3082 3082 3082 3082 3081 3081 3081 3080 3080 3079 3078 3077 3076 3075
3065 3063 3062 3063 3063 3063 3064 3065 3066 3066 3066 3066 3067 3067 3068 3068 3069 3069 3070 3070 3070 3071 3071 3072 3072 3072 3073 3073 3073 3073 3074 3074 3075 3075 3076 3076 3076 3077 3077 3077 3078 3078 3078 3078 3078 3078 3077 3077 3077 3078 3078 3079 3081 3083 3082 3082 3083 3084 3083 3083 3083 3082 3082 3083 3082 3081 3081 3080 3079 3078 3078 3077 3077 3076 3076 3076 3075 3075 3075 3074 3074 3074 3073 3072 3071
3061 3061 3061 3060 3059 3059 3061 3062 3063 3063 3063 3064 3064 3064 3064 3065 3065 3066 3066 3067 3067 3067 3067 3068 3068 3069 3069 3069 3069 3070 3070 3070 3070 3071 3071 3072 3072 3072 3072 3073 3073 3073 3073 3074 3074 3074 3074 3072 3072 3073 3072 3074 3077 3078 3078 3078 3079 3079 3079 3079 3078 3077 3078 3079 3078 3077 3076 3076 3075 3074 3073 3072 3071 3071 3071 3070 3069 3069 3068 3068 3068 3068 3067 3067 3067
3056 3057 3058 3057 3056 3056 3058 3059 3060 3060 3060 3061 3061 3061 3062 3062 3062 3063 3063 3063 3064 3064 3064 3064 3065 3065 3065 3066 3066 3066 3066 3066 3066 3066 3067 3067 3068 3068 3068 3069 3069 3069 3069 3069 3069 3071 3070 3069 3069 3068 3067 3069 3073 3073 3073 3074 3074 3074 3075 3075 3073 3073 3075 3075 3073 3073 3072 3071 3070 3069 3068 3068 3067 3066 3065 3064 3064 3063 3063 3062 3061 3061 3060 3060 3060
3053 3054 3054 3053 3053 3053 3054 3055 3056 3057 3058 3058 3058 3058 3059 3059 3060 3060 3060 3060 3060 3061 3061 3061 3061 3062 3062 3063 3063 3063 3063 3063 3063 3063 3063 3063 3063 3064 3064 3065 3065 3065 3064 3064 3065 3066 3066 3065 3064 3062 3062 3066 3069 3069 3069 3070 3070 3070 3070 3070 3069 3070 3070 3070 3069 3068 3068 3066 3065 3065 3064 3064 3063 3062 3060 3059 3059 3058 3058 3057 3055 3054 3054 3053 3053
3051 3050 3050 3049 3049 3050 3051 3052 3053 3054 3055 3055 3055 3055 3056 3056 3057 3057 3057 3057 3057 3057 3057 3057 3058 3058 3058 3059 3059 3059 3059 3059 3059 3059 3059 3060 3060 3060 3060 3061 3061 3060 3060 3060 3061 3061 3061 3060 3059 3058 3060 3062 3063 3063 3063 3064 3064 3065 3065 3065 3065 3065 3065 3064 3064 3063 3063 3061 3061 3060 3060 3060 3058 3057 3055 3054 3054 3054 3052 3051 3050 3049 3048 3047 3047
3048 3047 3047 3047 3047 3047 3048 3049 3050 3051 3051 3051 3051 3052 3052 3053 3054 3054 3054 3054 3054 3054 3054 3054 3054 3054 3054 3054 3054 3054 3054 3055 3055 3055 3056 3056 3056 3056 3056 3056 3056 3056 3056 3056 3056 3056 3056 3055 3055 3056 3057 3058 3058 3058 3058 3059 3059 3060 3060 3060 3060 3060 3059 3059 3058 3058 3057 3057 3056 3056 3056 3055 3054 3052 3050 3049 3049 3048 3047 3045 3043 3043 3042 3041 3040
3045 3045 3045 3045 3044 3044 3046 3046 3047 3048 3048 3048 3048 3048 3049 3049 3050 3051 3051 3051 3051 3051 3051 3051 3051 3051 3051 3051 3051 3051 3051 3051 3051 3051 3051 3051 3051 3052 3052 3052 3052 3052 3052 3051 3052 3052 3051 3050 3051 3053 3053 3053 3053 3053 3054 3054 3055 3055 3055 3055 3055 3055 3054 3054 3053 3053 3053 3052 3052 3051 3051 3050 3048 3046 3045 3044 3044 3042 3041 3039 3037 3036 3035 3034 3033
3043 3043 3043 3042 3041 3042 3043 3043 3044 3044 3044 3044 3045 3045 3045 3046 3046 3047 3048 3048 3048 3048 3048 3048 3048 3047 3047 3047 3047 3047 3047 3047 3048 3047 3047 3047 3047 3047 3047 3047 3047 3048 3047 3047 3047 3047 3046 3046 3047 3047 3048 3048 3048 3049 3049 3050 3050 3051 3051 3051 3051 3050 3050 3049 3049 3049 3048 3048 3047 3046 3045 3044 3042 3041 3040 3039 3038 3036 3035 3033 3031 3030 3028 3027 3026
3041 3041 3040 3038 3038 3039 3039 3040 3040 3041 3041 3041 3041 3041 3041 3042 3042 3043 3043 3043 3044 3044 3044 3044 3044 3043 3043 3043 3043 3043 3043 3043 3043 3043 3043 3043 3043 3043 3043 3042 3042 3043 3043 3042 3042 3043 3042 3042 3042 3042 3042 3043 3044 3044 3045 3046 3046 3046 3046 3046 3046 3046 3046 3045 3045 3045 3044 3043 3042 3041 3039 3037 3036 3035 3034 3033 3032 3030 3029 3027 3025 3023 3021 3020 3019
3037 3037 3035 3035 3035 3036 3035 3036 3037 3037 3037 3037 3038 3037 3037 3038 3038 3038 3039 3039 3039 3039 3039 3039 3039 3039 3039 3039 3038 3038 3039 3039 3039 3038 3038 3038 3038 3037 3037 3037 3038 3038 3038 3037 3037 3038 3037 3037 3038 3038 3038 3039 3040 3040 3041 3041 3041 3042 3042 3042 3042 3042 3042 3042 3041 3041 3040 3039 3038 3036 3034 3032 3030 3029 3028 3026 3025 3023 3022 3020 3019 3017 3015 3013 3011
3033 3032 3032 3032 3032 3032 3032 3033 3033 3033 3033 3034 3034 3033 3033 3033 3034 3034 3034 3035 3034 3034 3034 3034 3034 3034 3034 3034 3034 3034 3034 3033 3034 3033 3033 3033 3032 3032 3032 3033 3033 3033 3033 3032 3032 3032 3032 3033 3033 3034 3034 3035 3035 3036 3036 3037 3037 3038 3038 3039 3039 3039 3039 3038 3037 3037 3036 3035 3034 3032 3029 3027 3026 3024 3022 3020 3018 3017 3015 3014 3012 3010 3008 3006 3004
3030 3029 3029 3029 3028 3029 3029 3029 3029 3029 3030 3030 3029 3029 3029 3029 3029 3029 3030 3030 3029 3029 3029 3029 3029 3029 3029 3029 3029 3029 3029 3028 3028 3028 3027 3027 3027 3026 3027 3028 3028 3027 3027 3028 3028 3028 3028 3029 3029 3030 3030 3031 3031 3032 3033 3033 3034 3034 3035 3035 3035 3035 3035 3034 3034 3033 3032 3031 3029 3027 3025 3023 3021 3019 3017 3015 3013 3011 3009 3006 3005 3003 3000 2998 2996
3026 3025 3026 3025 3025 3025 3025 3025 3025 3025 3025 3025 3025 3025 3024 3024 3024 3025 3025 3025 3024 3024 3024 3023 3023 3023 3023 3024 3024 3024 3023 3023 3023 3022 3021 3021 3020 3021 3022 3022 3022 3022 3022 3023 3023 3024 3024 3025 3025 3026 3027 3027 3028 3029 3030 3030 3030 3031 3031 3031 3032 3031 3031 3031 3030 3029 3027 3026 3024 3023 3020 3018 3016 3014 3012 3009 3007 3004 3002 2999 2997 2994 2992 2990 2988
3021 3021 3021 3021 3021 3021 3021 3020 3020 3020 3020 3021 3020 3020 3019 3019 3019 3020 3020 3019 3019 3019 3018 3018 3018 3018 3018 3018 3018 3017 3017 3017 3017 3016 3016 3015 3014 3015 3016 3016 3016 3017 3017 3018 3018 3019 3020 3020 3022 3023 3024 3025 3025 3026 3027 3027 3027 3028 3028 3028 3028 3028 3027 3027 3025 3024 3023 3021 3020 3018 3016 3014 3011 3009 3007 3004 3001 2999 2996 2993 2991 2988 2985 2982 2980
3017 3017 3017 3016 3016 3015 3015 3015 3015 3015 3015 3015 3015 3014 3014 3013 3013 3013 3014 3014 3013 3013 3012 3012 3012 3012 3012 3012 3011 3011 3011 3010 3010 3010 3010 3008 3008 3010 3010 3011 3011 3012 3013 3013 3014 3015 3016 3017 3018 3020 3021 3022 3023 3024 3024 3025 3025 3025 3025 3025 3025 3024 3024 3023 3022 3020 3019 3017 3016 3014 3012 3009 3007 3005 3002 2999 2996 2993 2990 2987 2985 2982 2979 2976 2973
3013 3013 3012 3011 3011 3010 3010 3010 3010 3009 3009 3010 3009 3009 3009 3008 3008 3008 3008 3008 3008 3007 3006 3005 3005 3006 3006 3005 3004 3003 3003 3003 3003 3004 3003 3003 3003 3005 3005 3005 3006 3008 3008 3009 3010 3011 3013 3014 3016 3017 3018 3020 3020 3021 3022 3022 3022 3022 3022 3022 3022 3021 3020 3019 3018 3017 3015 3014 3012 3010 3007 3005 3002 2999 2996 2993 2990 2987 2983 2980 2977 2975 2972 2969 2966
3009 3008 3007 3006 3006 3006 3005 3005 3005 3005 3005 3005 3004 3004 3004 3003 3003 3002 3002 3002 3002 3001 2999 2999 2999 2999 2998 2998 2997 2996 2996 2996 2997 2997 2997 2997 2998 2999 3000 3001 3003 3004 3005 3006 3007 3009 3011 3012 3013 3015 3016 3017 3018 3019 3019 3020 3020 3020 3020 3019 3019 3018 3017 3016 3015 3013 3012 3010 3008 3006 3003 3000 2997 2994 2991 2987 2983 2980 2976 2973 2970 2967 2964 2961 2959
3004 3003 3002 3001 3001 3001 3001 3000 3000 3000 3000 3000 3000 3000 2999 2998 2997 2998 2997 2996 2996 2995 2993 2993 2993 2992 2992 2991 2990 2990 2990 2990 2990 2991 2991 2992 2993 2994 2996 2998 3000 3001 3003 3004 3006 3007 3009 3010 3011 3013 3014 3015 3016 3016 3017 3017 3017 3017 3017 3017 3016 3015 3014 3013 3012 3010 3009 3007 3004 3001 2998 2995 2992 2988 2984 2980 2976 2973 2969 2966 2963 2960 2957 2955 2953
2998 2998 2997 2997 2997 2997 2996 2996 2996 2996 2996 2996 2995 2995 2995 2993 2993 2993 2992 2991 2990 2989 2988 2988 2987 2986 2986 2985 2984 2984 2985 2985 2985 2986 2987 2988 2990 2992 2994 2995 2997 2999 3001 3003 3005 3006 3007 3009 3010 3011 3012 3013 3014 3014 3015 3015 3015 3015 3015 3014 3014 3013 3012 3011 3009 3007 3005 3003 3000 2997 2994 2990 2986 2982 2978 2974 2970 2966 2962 2959 2956 2954 2951 2949 2947
2993 2993 2993 2992 2992 2992 2992 2992 2992 2992 2992 2992 2992 2991 2989 2988 2988 2988 2987 2985 2985 2984 2983 2982 2981 2980 2980 2980 2979 2979 2980 2981 2981 2982 2984 2986 2987 2989 2991 2993 2995 2997 2999 3001 3003 3004 3006 3007 3008 3009 3010 3011 3012 3012 3013 3013 3013 3013 3013 3012 3011 3011 3009 3008 3006 3004 3001 2999 2996 2992 2989 2985 2981 2977 2973 2968 2964 2960 2956 2953 2950 2948 2946 2943 2941